Weather History for KPVU - October, 2012

Change the Weather History Date:

Wednesday, October 10, 2012

  Actual Average Record
Temperature  
Mean Temperature 60 °F -  
Max Temperature 75 °F 65 °F 86 °F (1996)
Min Temperature 44 °F 37 °F 29 °F (1982)
Degree Days  
Heating Degree Days 6    
Growing Degree Days 10 (Base 50)    
Moisture  
Dew Point 37 °F    
Average Humidity 50    
Maximum Humidity 72    
Minimum Humidity 25    
Precipitation  
Precipitation 0.00 in - - ()
Sea Level Pressure  
Sea Level Pressure 30.05 in    
Wind  
Wind Speed 2 mph (South)    
Max Wind Speed 25 mph    
Max Gust Speed 39 mph    
Visibility 12 miles    
Events      
Averages and records for this station are not official NWS values.
T = Trace of Precipitation, MM = Missing Value Source: NWS Daily Summary

Daily Weather History Graph

Daily Weather History Graph

Search for Another Location

Airport or City:

Trip Planner

Search our weather history database for the weather conditions in past years. The results will help you decide how hot, cold, wet, or windy it might be!

Date:

Astronomy

Oct. 10, 2012 Rise Set
Actual Time 7:32 AM MDT 6:53 PM MDT
Civil Twilight 7:05 AM MDT 7:21 PM MDT
Nautical Twilight 6:34 AM MDT 7:52 PM MDT
Astronomical Twilight 6:02 AM MDT 8:23 PM MDT
Moon 2:12 AM MDT (10/10) 3:59 PM MDT (10/10)
Length of Visible Light 12h 15m
Length of Day
11h 20m
Waning Crescent, 26% of the Moon is Illuminated
Oct 10
Waning Crescent
Oct 15
New
Oct 21
First Quarter
Oct 29
Full
Nov 6
Last Quarter

Hourly Weather History & Observations

Time (MDT) Temp. Windchill Dew Point Humidity Pressure Visibility Wind Dir Wind Speed Gust Speed Precip Events Conditions
12:35 AM 50.0 °F - 35.6 °F 58% 30.07 in 10.0 mi Calm Calm - N/A   Clear
12:55 AM 48.2 °F - 37.4 °F 66% 30.07 in 10.0 mi Calm Calm - N/A   Clear
1:15 AM 48.2 °F - 35.6 °F 62% 30.07 in 10.0 mi Calm Calm - N/A   Clear
2:15 AM 48.2 °F - 33.8 °F 58% 30.08 in 10.0 mi Calm Calm - N/A   Clear
2:35 AM 48.2 °F - 32.0 °F 54% 30.08 in 10.0 mi Calm Calm - N/A   Clear
3:15 AM 48.2 °F - 30.2 °F 50% 30.08 in 10.0 mi SE 3.5 mph - N/A   Clear
3:55 AM 46.4 °F 45.2 °F 33.8 °F 62% 30.08 in 10.0 mi SE 3.5 mph - N/A   Clear
4:35 AM 46.4 °F - 30.2 °F 53% 30.07 in 10.0 mi Calm Calm - N/A   Clear
4:55 AM 44.6 °F - 32.0 °F 61% 30.08 in 10.0 mi Calm Calm - N/A   Clear
5:55 AM 48.2 °F - 30.2 °F 50% 30.08 in 10.0 mi SE 6.9 mph - N/A   Clear
6:35 AM 44.6 °F - 32.0 °F 61% 30.09 in 10.0 mi Calm Calm - N/A   Clear
6:47 AM 44.6 °F - 33.8 °F 66% 30.09 in 15.0 mi Calm Calm - N/A   Scattered Clouds
7:50 AM 46.4 °F - 30.2 °F 53% 30.09 in 15.0 mi Calm Calm - N/A   Scattered Clouds
8:49 AM 48.2 °F - 33.8 °F 58% 30.10 in 15.0 mi Calm Calm - N/A   Mostly Cloudy
9:47 AM 53.6 °F - 35.6 °F 51% 30.11 in 15.0 mi Calm Calm - N/A   Scattered Clouds
10:49 AM 62.6 °F - 32.0 °F 32% 30.10 in 15.0 mi Calm Calm - N/A   Scattered Clouds
11:49 AM 64.4 °F - 33.8 °F 32% 30.09 in 15.0 mi Calm Calm - N/A   Scattered Clouds
12:50 PM 64.4 °F - 37.4 °F 37% 30.07 in 15.0 mi Calm Calm - N/A   Scattered Clouds
2:50 PM 75.2 °F - 37.4 °F 25% 30.00 in 15.0 mi Calm Calm - N/A   Scattered Clouds
3:58 PM 73.4 °F - 39.2 °F 29% 29.99 in 15.0 mi Calm Calm - N/A   Scattered Clouds
4:59 PM 75.2 °F - 37.4 °F 25% 29.96 in 15.0 mi Calm Calm - N/A   Scattered Clouds
5:47 PM 75.2 °F - 37.4 °F 25% 29.95 in 15.0 mi Calm Calm - N/A   Scattered Clouds
6:47 PM 66.2 °F - 42.8 °F 43% 29.96 in 15.0 mi Calm Calm - N/A   Mostly Cloudy
7:50 PM 64.4 °F - 44.6 °F 49% 30.00 in 15.0 mi SW 20.7 mph 28.8 mph N/A   Mostly Cloudy
8:55 PM 64.4 °F - 44.6 °F 49% 30.02 in 15.0 mi South 25.3 mph 39.1 mph N/A   Mostly Cloudy
9:15 PM 62.6 °F - 44.6 °F 52% 30.03 in 10.0 mi South 25.3 mph 34.5 mph N/A   Partly Cloudy
11:35 PM 57.2 °F - 46.4 °F 67% 30.01 in 10.0 mi SW 6.9 mph - N/A   Scattered Clouds
11:55 PM 57.2 °F - 48.2 °F 72% 30.01 in 10.0 mi SSW 6.9 mph - N/A   Partly Cloudy